,,PA_Meas_PMT16A,,PR_Meas_QMR101_102,,RH_Meas_QMH101,,SR_Meas_QMS101,,TA_Meas_QMH101,,GenWind,,GenWind,
time,status,PA,status,PR,status,RH,status,SR,status,TA,status,DirAvg,status,SpdAvg,
2010-11-15, 00:00:04,VALID,917.622,VALID,0,VALID,95.6586,VALID,0,VALID,19.9758,VALID,136,VALID,0.277344,
2010-11-15, 00:01:04,VALID,917.627,VALID,0,VALID,95.5214,VALID,0,VALID,19.9353,VALID,136,VALID,0,
2010-11-15, 00:02:04,VALID,917.612,VALID,0,VALID,95.3384,VALID,0,VALID,19.9353,VALID,136,VALID,0,
2010-11-15, 00:03:04,VALID,917.631,VALID,0,VALID,95.0183,VALID,0,VALID,19.9173,VALID,136,VALID,0,
2010-11-15, 00:04:04,VALID,917.612,VALID,0,VALID,94.7896,VALID,0,VALID,19.8573,VALID,136,VALID,0,
2010-11-15, 00:05:04,VALID,917.629,VALID,0,VALID,94.7591,VALID,0,VALID,19.8378,VALID,136,VALID,0,
2010-11-15, 00:06:04,VALID,917.614,VALID,0,VALID,94.8505,VALID,0,VALID,19.8783,VALID,136,VALID,0,
2010-11-15, 00:07:04,VALID,917.59,VALID,0,VALID,95.0106,VALID,0,VALID,19.8978,VALID,136,VALID,0,
2010-11-15, 00:08:04,VALID,917.618,VALID,0,VALID,95.0869,VALID,0,VALID,19.8978,VALID,136,VALID,0,
2010-11-15, 00:09:04,VALID,917.586,VALID,0,VALID,95.0945,VALID,0,VALID,19.8978,VALID,136,VALID,0,
2010-11-15, 00:10:04,VALID,917.592,VALID,0,VALID,94.9649,VALID,0,VALID,19.8588,VALID,136,VALID,0.177734,
2010-11-15, 00:11:04,VALID,917.593,VALID,0,VALID,94.8963,VALID,0,VALID,19.8198,VALID,136,VALID,0.335156,
2010-11-15, 00:12:04,VALID,917.627,VALID,0,VALID,95.0488,VALID,0,VALID,19.7988,VALID,136,VALID,0.546094,
2010-11-15, 00:13:04,VALID,917.614,VALID,0,VALID,94.9725,VALID,0,VALID,19.7403,VALID,136,VALID,0.46875,
2010-11-15, 00:14:04,VALID,917.617,VALID,0,VALID,95.0869,VALID,0,VALID,19.7418,VALID,136,VALID,0.325,
2010-11-15, 00:15:04,VALID,917.589,VALID,0,VALID,95.2775,VALID,0,VALID,19.7418,VALID,136,VALID,0.598828,
2010-11-15, 00:16:04,VALID,917.584,VALID,0,VALID,95.3384,VALID,0,VALID,19.7223,VALID,136,VALID,0.567969,
2010-11-15, 00:17:04,VALID,917.582,VALID,0,VALID,95.3308,VALID,0,VALID,19.7028,VALID,136,VALID,0.401172,
2010-11-15, 00:18:04,VALID,917.564,VALID,0,VALID,95.3994,VALID,0,VALID,19.6833,VALID,136,VALID,0.385938,
2010-11-15, 00:19:04,VALID,917.541,VALID,0,VALID,95.5214,VALID,0,VALID,19.6833,VALID,136,VALID,0.404687,
2010-11-15, 00:20:04,VALID,917.56,VALID,0,VALID,95.5595,VALID,0,VALID,19.6833,VALID,136,VALID,0.277344,
2010-11-15, 00:21:04,VALID,917.578,VALID,0,VALID,95.5671,VALID,0,VALID,19.6833,VALID,136,VALID,0,
2010-11-15, 00:22:04,VALID,917.555,VALID,0,VALID,95.529,VALID,0,VALID,19.6638,VALID,136,VALID,0,
2010-11-15, 00:23:04,VALID,917.576,VALID,0,VALID,95.5214,VALID,0,VALID,19.6638,VALID,136,VALID,0,
2010-11-15, 00:24:04,VALID,917.577,VALID,0,VALID,95.5367,VALID,0,VALID,19.6848,VALID,136,VALID,0.197656,
2010-11-15, 00:25:04,VALID,917.579,VALID,0,VALID,95.529,VALID,0,VALID,19.6638,VALID,136,VALID,0.49375,
2010-11-15, 00:26:04,VALID,917.575,VALID,0,VALID,95.529,VALID,0,VALID,19.7028,VALID,136,VALID,0.272266,
2010-11-15, 00:27:04,VALID,917.584,VALID,0,VALID,95.4299,VALID,0,VALID,19.6833,VALID,136,VALID,0.405859,
2010-11-15, 00:28:04,VALID,917.589,VALID,0,VALID,95.3689,VALID,0,VALID,19.7028,VALID,136,VALID,0.323828,
2010-11-15, 00:29:04,VALID,917.585,VALID,0,VALID,95.3232,VALID,0,VALID,19.7028,VALID,136,VALID,0.175391,
2010-11-15, 00:30:04,VALID,917.595,VALID,0,VALID,95.3461,VALID,0,VALID,19.7013,VALID,136,VALID,0,
2010-11-15, 00:31:04,VALID,917.573,VALID,0,VALID,95.2622,VALID,0,VALID,19.7208,VALID,136,VALID,0,
2010-11-15, 00:32:04,VALID,917.545,VALID,0,VALID,95.0488,VALID,0,VALID,19.7223,VALID,136,VALID,0,
2010-11-15, 00:33:04,VALID,917.539,VALID,0,VALID,94.8429,VALID,0,VALID,19.7418,VALID,136,VALID,0,
2010-11-15, 00:34:04,VALID,917.526,VALID,0,VALID,94.5837,VALID,0,VALID,19.8003,VALID,136,VALID,0,
2010-11-15, 00:35:04,VALID,917.496,VALID,0,VALID,94.416,VALID,0,VALID,19.8393,VALID,136,VALID,0,
2010-11-15, 00:36:04,VALID,917.515,VALID,0,VALID,94.1873,VALID,0,VALID,19.8978,VALID,136,VALID,0,
2010-11-15, 00:37:04,VALID,917.491,VALID,0,VALID,93.9967,VALID,0,VALID,19.9173,VALID,136,VALID,0,
2010-11-15, 00:38:04,VALID,917.507,VALID,0,VALID,93.8138,VALID,0,VALID,19.9173,VALID,136,VALID,0,
2010-11-15, 00:39:04,VALID,917.511,VALID,0,VALID,93.7833,VALID,0,VALID,19.9563,VALID,136,VALID,0,
2010-11-15, 00:40:04,VALID,917.455,VALID,0,VALID,93.5317,VALID,0,VALID,19.9758,VALID,136,VALID,0,
2010-11-15, 00:41:04,VALID,917.479,VALID,0,VALID,93.2039,VALID,0,VALID,19.9953,VALID,136,VALID,0,
2010-11-15, 00:42:04,VALID,917.484,VALID,0,VALID,92.6931,VALID,0,VALID,19.9743,VALID,136,VALID,0,
2010-11-15, 00:43:04,VALID,917.49,VALID,0,VALID,92.7312,VALID,0,VALID,20.0148,VALID,136,VALID,0,
2010-11-15, 00:44:04,VALID,917.484,VALID,0,VALID,92.8456,VALID,0,VALID,20.0343,VALID,136,VALID,0.561719,
2010-11-15, 00:45:04,VALID,917.474,VALID,0,VALID,93.303,VALID,0,VALID,20.0538,VALID,136,VALID,0.759766,
2010-11-15, 00:46:04,VALID,917.457,VALID,0,VALID,93.7604,VALID,0,VALID,20.0343,VALID,136,VALID,0.915625,
2010-11-15, 00:47:04,VALID,917.438,VALID,0,VALID,94.1111,VALID,0,VALID,20.0148,VALID,136,VALID,0.869922,
2010-11-15, 00:48:04,VALID,917.436,VALID,0,VALID,94.416,VALID,0,VALID,19.9758,VALID,136,VALID,0.941406,
2010-11-15, 00:49:04,VALID,917.434,VALID,0,VALID,94.6981,VALID,0,VALID,19.9173,VALID,136,VALID,0.691797,
2010-11-15, 00:50:04,VALID,917.375,VALID,0,VALID,94.9649,VALID,0,VALID,19.8978,VALID,136,VALID,0.795703,
2010-11-15, 00:51:04,VALID,917.375,VALID,0,VALID,95.1555,VALID,0,VALID,19.8588,VALID,136,VALID,0.626562,
2010-11-15, 00:52:04,VALID,917.34,VALID,0,VALID,95.3079,VALID,0,VALID,19.8588,VALID,136,VALID,0.575,
2010-11-15, 00:53:04,VALID,917.374,VALID,0,VALID,95.4604,VALID,0,VALID,19.8588,VALID,136,VALID,0.496875,
2010-11-15, 00:54:04,VALID,917.336,VALID,0,VALID,95.5824,VALID,0,VALID,19.8198,VALID,136,VALID,0.812109,
2010-11-15, 00:55:04,VALID,917.344,VALID,0,VALID,95.6662,VALID,0,VALID,19.8393,VALID,136,VALID,0.587109,
2010-11-15, 00:56:04,VALID,917.338,VALID,0,VALID,95.7425,VALID,0,VALID,19.8198,VALID,135,VALID,0.573047,
2010-11-15, 00:57:04,VALID,917.303,VALID,0,VALID,95.834,VALID,0,VALID,19.8003,VALID,136,VALID,0.85625,
2010-11-15, 00:58:04,VALID,917.299,VALID,0,VALID,95.9254,VALID,0,VALID,19.8003,VALID,136,VALID,0.833594,
2010-11-15, 00:59:04,VALID,917.271,VALID,0,VALID,96.0169,VALID,0,VALID,19.7988,VALID,136,VALID,1.17656,
2010-11-15, 01:00:04,VALID,917.25,VALID,0,VALID,96.1084,VALID,0.107441,VALID,19.7988,VALID,135,VALID,1.03359,
2010-11-15, 01:01:04,VALID,917.245,VALID,0,VALID,96.1465,VALID,0,VALID,19.7793,VALID,136,VALID,0.717969,
2010-11-15, 01:02:04,VALID,917.244,VALID,0,VALID,96.1923,VALID,0.107441,VALID,19.7988,VALID,136,VALID,0.471484,
2010-11-15, 01:03:04,VALID,917.254,VALID,0,VALID,96.2228,VALID,0,VALID,19.7988,VALID,136,VALID,0.294531,
2010-11-15, 01:04:04,VALID,917.242,VALID,0,VALID,96.1923,VALID,0,VALID,19.7793,VALID,136,VALID,0.0742188,
2010-11-15, 01:05:04,VALID,917.275,VALID,0,VALID,96.1846,VALID,0,VALID,19.7988,VALID,136,VALID,0.232031,
2010-11-15, 01:06:04,VALID,917.314,VALID,0,VALID,96.1465,VALID,0,VALID,19.8183,VALID,136,VALID,0.00117188,
2010-11-15, 01:07:04,VALID,917.338,VALID,0,VALID,96.0703,VALID,0,VALID,19.8183,VALID,136,VALID,0.00429688,
2010-11-15, 01:08:04,VALID,917.338,VALID,0,VALID,95.9712,VALID,0,VALID,19.8183,VALID,136,VALID,0.165625,
2010-11-15, 01:09:04,VALID,917.335,VALID,0,VALID,95.9026,VALID,0.107441,VALID,19.8378,VALID,136,VALID,0.215234,
2010-11-15, 01:10:04,VALID,917.341,VALID,0,VALID,95.8111,VALID,0,VALID,19.8573,VALID,136,VALID,0.1875,
2010-11-15, 01:11:04,VALID,917.356,VALID,0,VALID,95.6815,VALID,0,VALID,19.8573,VALID,136,VALID,0.178906,
2010-11-15, 01:12:04,VALID,917.334,VALID,0,VALID,95.5595,VALID,0,VALID,19.8573,VALID,136,VALID,0.178906,
2010-11-15, 01:13:04,VALID,917.341,VALID,0,VALID,95.4604,VALID,0,VALID,19.8378,VALID,136,VALID,0.251172,
2010-11-15, 01:14:04,VALID,917.319,VALID,0,VALID,95.3994,VALID,0,VALID,19.8588,VALID,136,VALID,0.157031,
2010-11-15, 01:15:04,VALID,917.276,VALID,0,VALID,95.3842,VALID,0,VALID,19.8183,VALID,136,VALID,0.0957031,
2010-11-15, 01:16:04,VALID,917.283,VALID,0,VALID,95.3918,VALID,0,VALID,19.8378,VALID,136,VALID,0,
2010-11-15, 01:17:04,VALID,917.265,VALID,0,VALID,95.3842,VALID,0,VALID,19.8588,VALID,136,VALID,0,
2010-11-15, 01:18:04,VALID,917.252,VALID,0,VALID,95.3537,VALID,0,VALID,19.8783,VALID,136,VALID,0,
2010-11-15, 01:19:04,VALID,917.248,VALID,0,VALID,95.3384,VALID,0,VALID,19.8588,VALID,136,VALID,0,
2010-11-15, 01:20:04,VALID,917.236,VALID,0,VALID,95.3537,VALID,0,VALID,19.9173,VALID,136,VALID,0,
2010-11-15, 01:21:04,VALID,917.205,VALID,0,VALID,95.1783,VALID,0,VALID,19.8978,VALID,136,VALID,0.204688,
2010-11-15, 01:22:04,VALID,917.19,VALID,0,VALID,94.9725,VALID,0,VALID,19.9368,VALID,136,VALID,0.1625,
2010-11-15, 01:23:04,VALID,917.186,VALID,0,VALID,94.7591,VALID,0,VALID,19.8963,VALID,136,VALID,0.472656,
2010-11-15, 01:24:04,VALID,917.138,VALID,0,VALID,94.1492,VALID,0,VALID,19.9173,VALID,136,VALID,0.975,
2010-11-15, 01:25:04,VALID,917.127,VALID,0,VALID,94.2559,VALID,0,VALID,19.9563,VALID,136,VALID,0.932813,
2010-11-15, 01:26:04,VALID,917.079,VALID,0,VALID,94.3169,VALID,0,VALID,19.9563,VALID,136,VALID,0.603906,
2010-11-15, 01:27:04,VALID,917.022,VALID,0,VALID,94.3093,VALID,0,VALID,19.9353,VALID,136,VALID,0.806641,
2010-11-15, 01:28:04,VALID,916.971,VALID,0,VALID,94.4008,VALID,0,VALID,19.9563,VALID,136,VALID,0.598437,
2010-11-15, 01:29:04,VALID,916.954,VALID,0,VALID,94.4999,VALID,0,VALID,19.9548,VALID,136,VALID,0.862109,
2010-11-15, 01:30:04,VALID,916.904,VALID,0,VALID,94.4999,VALID,0,VALID,19.9158,VALID,136,VALID,0.786328,
2010-11-15, 01:31:04,VALID,916.91,VALID,0,VALID,94.4846,VALID,0,VALID,19.9548,VALID,136,VALID,0.730469,
2010-11-15, 01:32:04,VALID,916.898,VALID,0,VALID,94.5532,VALID,0,VALID,19.9368,VALID,136,VALID,0.592969,
2010-11-15, 01:33:04,VALID,916.913,VALID,0,VALID,94.6676,VALID,0.107441,VALID,19.9353,VALID,136,VALID,0.751172,
2010-11-15, 01:34:04,VALID,916.949,VALID,0,VALID,94.7743,VALID,0.107441,VALID,19.9548,VALID,136,VALID,0.353906,
2010-11-15, 01:35:04,VALID,916.941,VALID,0,VALID,94.8963,VALID,0.107441,VALID,19.8768,VALID,136,VALID,0.346875,
2010-11-15, 01:36:04,VALID,916.988,VALID,0,VALID,94.942,VALID,0,VALID,19.8753,VALID,136,VALID,0.217969,
2010-11-15, 01:37:04,VALID,916.992,VALID,0,VALID,94.9344,VALID,0,VALID,19.8963,VALID,136,VALID,0.200391,
2010-11-15, 01:38:04,VALID,916.996,VALID,0,VALID,94.8582,VALID,0,VALID,19.8963,VALID,136,VALID,0.242188,
2010-11-15, 01:39:04,VALID,917.024,VALID,0,VALID,94.8505,VALID,0.107441,VALID,19.9143,VALID,136,VALID,0.00507812,
2010-11-15, 01:40:04,VALID,917.022,VALID,0,VALID,94.82,VALID,0,VALID,19.9338,VALID,136,VALID,0,
2010-11-15, 01:41:04,VALID,917.036,VALID,0,VALID,94.8277,VALID,0.107441,VALID,19.9338,VALID,136,VALID,0,
2010-11-15, 01:42:04,VALID,917.049,VALID,0,VALID,94.7133,VALID,0,VALID,19.9743,VALID,136,VALID,0,
2010-11-15, 01:43:04,VALID,917.064,VALID,0,VALID,94.7057,VALID,0,VALID,19.9938,VALID,136,VALID,0,
2010-11-15, 01:44:04,VALID,917.075,VALID,0,VALID,94.7896,VALID,0,VALID,19.9743,VALID,136,VALID,0.596094,
2010-11-15, 01:45:04,VALID,917.107,VALID,0,VALID,94.6981,VALID,0,VALID,19.9953,VALID,136,VALID,0.400391,
2010-11-15, 01:46:04,VALID,917.107,VALID,0,VALID,94.66,VALID,0,VALID,19.9953,VALID,136,VALID,0.430078,
2010-11-15, 01:47:04,VALID,917.094,VALID,0,VALID,94.6752,VALID,0,VALID,19.9758,VALID,136,VALID,0.286328,
2010-11-15, 01:48:04,VALID,917.108,VALID,0,VALID,94.6752,VALID,0,VALID,19.9758,VALID,136,VALID,0.445313,
2010-11-15, 01:49:04,VALID,917.12,VALID,0,VALID,94.6371,VALID,0,VALID,19.9353,VALID,136,VALID,0.267578,
2010-11-15, 01:50:04,VALID,917.096,VALID,0,VALID,94.5761,VALID,0,VALID,19.9158,VALID,136,VALID,0.26875,
2010-11-15, 01:51:04,VALID,917.096,VALID,0,VALID,94.6066,VALID,0,VALID,19.8978,VALID,136,VALID,0.246484,
2010-11-15, 01:52:04,VALID,917.107,VALID,0,VALID,94.6752,VALID,0,VALID,19.8768,VALID,136,VALID,0.03125,
2010-11-15, 01:53:04,VALID,917.086,VALID,0,VALID,94.8505,VALID,0,VALID,19.9173,VALID,136,VALID,0.194141,
2010-11-15, 01:54:04,VALID,917.095,VALID,0,VALID,94.7819,VALID,0,VALID,19.9173,VALID,136,VALID,0.133203,
2010-11-15, 01:55:04,VALID,917.095,VALID,0,VALID,94.5456,VALID,0,VALID,19.9188,VALID,136,VALID,0,
2010-11-15, 01:56:04,VALID,917.081,VALID,0,VALID,94.3931,VALID,0,VALID,19.8978,VALID,136,VALID,0,
2010-11-15, 01:57:04,VALID,917.088,VALID,0,VALID,94.3779,VALID,0,VALID,19.8978,VALID,136,VALID,0.0855469,
2010-11-15, 01:58:04,VALID,917.066,VALID,0,VALID,94.5075,VALID,0,VALID,19.8963,VALID,136,VALID,0.410937,
2010-11-15, 01:59:04,VALID,917.09,VALID,0,VALID,94.4617,VALID,0,VALID,19.9173,VALID,136,VALID,0.40625,
2010-11-15, 02:00:04,VALID,917.077,VALID,0,VALID,94.4922,VALID,0,VALID,19.8573,VALID,136,VALID,0.384375,
2010-11-15, 02:01:04,VALID,917.121,VALID,0,VALID,94.5151,VALID,0,VALID,19.8573,VALID,136,VALID,0.519141,
2010-11-15, 02:02:04,VALID,917.111,VALID,0,VALID,94.2102,VALID,0,VALID,19.8393,VALID,136,VALID,0.404297,
2010-11-15, 02:03:04,VALID,917.116,VALID,0,VALID,94.1034,VALID,0,VALID,19.8588,VALID,136,VALID,0.778125,
2010-11-15, 02:04:04,VALID,917.097,VALID,0,VALID,94.0348,VALID,0,VALID,19.8378,VALID,136,VALID,0.560938,
2010-11-15, 02:05:04,VALID,917.103,VALID,0,VALID,93.9891,VALID,0,VALID,19.8783,VALID,136,VALID,0.48125,
2010-11-15, 02:06:04,VALID,917.047,VALID,0,VALID,93.7909,VALID,0,VALID,19.8783,VALID,136,VALID,0.238281,
2010-11-15, 02:07:04,VALID,917.053,VALID,0,VALID,94.012,VALID,0,VALID,19.9173,VALID,136,VALID,0.0796875,
2010-11-15, 02:08:04,VALID,917.003,VALID,0,VALID,94.0653,VALID,0,VALID,19.9368,VALID,136,VALID,0.109766,
2010-11-15, 02:09:04,VALID,916.97,VALID,0,VALID,94.1873,VALID,0,VALID,19.9353,VALID,136,VALID,0.518359,
2010-11-15, 02:10:04,VALID,916.962,VALID,0,VALID,94.1949,VALID,0,VALID,19.9758,VALID,136,VALID,0.432813,
2010-11-15, 02:11:04,VALID,916.965,VALID,0,VALID,94.1644,VALID,0,VALID,19.9758,VALID,136,VALID,0.193359,
2010-11-15, 02:12:04,VALID,916.982,VALID,0,VALID,93.9357,VALID,0,VALID,19.9563,VALID,136,VALID,0.00429688,
2010-11-15, 02:13:04,VALID,917.013,VALID,0,VALID,93.9129,VALID,0,VALID,19.9743,VALID,136,VALID,0,
2010-11-15, 02:14:04,VALID,917.049,VALID,0,VALID,93.9357,VALID,0,VALID,19.9743,VALID,136,VALID,0.190234,
2010-11-15, 02:15:04,VALID,917.073,VALID,0,VALID,94.0043,VALID,0,VALID,19.9758,VALID,136,VALID,0.336328,
2010-11-15, 02:16:04,VALID,917.079,VALID,0,VALID,93.6918,VALID,0,VALID,19.8963,VALID,136,VALID,0.540234,
2010-11-15, 02:17:04,VALID,917.102,VALID,0,VALID,93.3411,VALID,0,VALID,19.9173,VALID,136,VALID,0.551172,
2010-11-15, 02:18:04,VALID,917.083,VALID,0,VALID,93.646,VALID,0,VALID,19.8978,VALID,136,VALID,0.625781,
2010-11-15, 02:19:04,VALID,917.068,VALID,0,VALID,93.829,VALID,0,VALID,19.8768,VALID,136,VALID,0.607813,
2010-11-15, 02:20:04,VALID,917.052,VALID,0,VALID,94.0653,VALID,0,VALID,19.8783,VALID,136,VALID,0.521484,
2010-11-15, 02:21:04,VALID,917.025,VALID,0,VALID,94.294,VALID,0,VALID,19.8573,VALID,136,VALID,0.715234,
2010-11-15, 02:22:04,VALID,917.005,VALID,0,VALID,94.477,VALID,0,VALID,19.8768,VALID,136,VALID,0.271094,
2010-11-15, 02:23:04,VALID,916.986,VALID,0,VALID,94.538,VALID,0,VALID,19.8978,VALID,136,VALID,0.282422,
2010-11-15, 02:24:04,VALID,916.955,VALID,0,VALID,94.5761,VALID,0,VALID,19.8783,VALID,136,VALID,0.405469,
2010-11-15, 02:25:04,VALID,916.971,VALID,0,VALID,94.6523,VALID,0,VALID,19.8978,VALID,136,VALID,0.501562,
2010-11-15, 02:26:04,VALID,916.975,VALID,0,VALID,94.6447,VALID,0,VALID,19.8978,VALID,136,VALID,0.177344,
2010-11-15, 02:27:04,VALID,917.02,VALID,0,VALID,94.5761,VALID,0,VALID,19.8573,VALID,136,VALID,0.339063,
2010-11-15, 02:28:04,VALID,917.049,VALID,0,VALID,94.6066,VALID,0,VALID,19.8783,VALID,136,VALID,0.365625,
2010-11-15, 02:29:04,VALID,917.043,VALID,0,VALID,94.6752,VALID,0,VALID,19.8768,VALID,136,VALID,0.291406,
2010-11-15, 02:30:04,VALID,917.104,VALID,0,VALID,94.7057,VALID,0,VALID,19.8768,VALID,136,VALID,0.426562,
2010-11-15, 02:31:04,VALID,917.108,VALID,0,VALID,94.6295,VALID,0,VALID,19.8783,VALID,136,VALID,0.791016,
2010-11-15, 02:32:04,VALID,917.08,VALID,0,VALID,94.5227,VALID,0,VALID,19.8573,VALID,136,VALID,0.980078,
2010-11-15, 02:33:04,VALID,917.085,VALID,0,VALID,94.5837,VALID,0,VALID,19.8783,VALID,136,VALID,0.493359,
2010-11-15, 02:34:04,VALID,917.079,VALID,0,VALID,94.6066,VALID,0,VALID,19.8978,VALID,136,VALID,0.549609,
2010-11-15, 02:35:04,VALID,917.035,VALID,0,VALID,94.6142,VALID,0,VALID,19.8963,VALID,136,VALID,0.488281,
2010-11-15, 02:36:04,VALID,917.015,VALID,0,VALID,94.7209,VALID,0,VALID,19.9368,VALID,136,VALID,0.438281,
2010-11-15, 02:37:04,VALID,916.975,VALID,0,VALID,94.6066,VALID,0,VALID,19.9173,VALID,136,VALID,0.626953,
2010-11-15, 02:38:04,VALID,916.945,VALID,0,VALID,94.599,VALID,0,VALID,19.9158,VALID,136,VALID,0.0582031,
2010-11-15, 02:39:04,VALID,916.961,VALID,0,VALID,94.5761,VALID,0,VALID,19.9158,VALID,136,VALID,0.237891,
2010-11-15, 02:40:04,VALID,916.945,VALID,0,VALID,94.5837,VALID,0,VALID,19.9563,VALID,136,VALID,0.279297,
2010-11-15, 02:41:04,VALID,916.904,VALID,0,VALID,94.5761,VALID,0,VALID,19.9758,VALID,136,VALID,0.528516,
2010-11-15, 02:42:04,VALID,916.902,VALID,0,VALID,94.4541,VALID,0,VALID,19.9758,VALID,136,VALID,0.851953,
2010-11-15, 02:43:04,VALID,916.913,VALID,0,VALID,94.3321,VALID,0,VALID,19.9953,VALID,136,VALID,0.242188,
2010-11-15, 02:44:04,VALID,916.907,VALID,0,VALID,94.2178,VALID,0,VALID,19.9953,VALID,136,VALID,0.474219,
2010-11-15, 02:45:04,VALID,916.939,VALID,0,VALID,94.0425,VALID,0,VALID,19.9953,VALID,136,VALID,0.616016,
2010-11-15, 02:46:04,VALID,916.903,VALID,0,VALID,93.9205,VALID,0,VALID,20.0343,VALID,136,VALID,0.408203,
2010-11-15, 02:47:04,VALID,916.898,VALID,0,VALID,93.8214,VALID,0,VALID,20.0523,VALID,136,VALID,0.602734,
2010-11-15, 02:48:04,VALID,916.912,VALID,0,VALID,93.8747,VALID,0,VALID,20.0733,VALID,136,VALID,0.620313,
2010-11-15, 02:49:04,VALID,916.906,VALID,0,VALID,93.89,VALID,0,VALID,20.0733,VALID,136,VALID,0.796094,
2010-11-15, 02:50:04,VALID,916.92,VALID,0,VALID,93.9281,VALID,0,VALID,20.0328,VALID,136,VALID,0.748438,
2010-11-15, 02:51:04,VALID,916.913,VALID,0,VALID,93.9662,VALID,0,VALID,20.0343,VALID,136,VALID,0.682422,
2010-11-15, 02:52:04,VALID,916.934,VALID,0,VALID,94.012,VALID,0,VALID,19.9938,VALID,136,VALID,0.545703,
2010-11-15, 02:53:04,VALID,916.925,VALID,0,VALID,94.1034,VALID,0,VALID,19.9938,VALID,136,VALID,0.451172,
2010-11-15, 02:54:04,VALID,916.929,VALID,0,VALID,94.1339,VALID,0,VALID,20.0343,VALID,136,VALID,0.208203,
2010-11-15, 02:55:04,VALID,916.933,VALID,0,VALID,94.2864,VALID,0,VALID,20.0328,VALID,136,VALID,0.366406,
2010-11-15, 02:56:04,VALID,916.901,VALID,0,VALID,94.355,VALID,0,VALID,20.0133,VALID,136,VALID,0.294531,
2010-11-15, 02:57:04,VALID,916.881,VALID,0,VALID,94.416,VALID,0,VALID,19.9938,VALID,136,VALID,0.177734,
2010-11-15, 02:58:04,VALID,916.894,VALID,0,VALID,94.4999,VALID,0,VALID,20.0358,VALID,136,VALID,0.425,
2010-11-15, 02:59:04,VALID,916.861,VALID,0,VALID,94.5456,VALID,0,VALID,19.9953,VALID,136,VALID,0.260938,
2010-11-15, 03:00:04,VALID,916.849,VALID,0,VALID,94.6752,VALID,0,VALID,19.9953,VALID,136,VALID,0.413672,
2010-11-15, 03:01:04,VALID,916.785,VALID,0,VALID,94.7362,VALID,0,VALID,19.9743,VALID,136,VALID,0.501562,
2010-11-15, 03:02:04,VALID,916.754,VALID,0,VALID,94.7591,VALID,0,VALID,19.9758,VALID,136,VALID,0.708203,
2010-11-15, 03:03:04,VALID,916.759,VALID,0,VALID,94.7896,VALID,0,VALID,19.9743,VALID,136,VALID,0.528125,
2010-11-15, 03:04:04,VALID,916.713,VALID,0,VALID,94.7819,VALID,0,VALID,19.9758,VALID,136,VALID,0.596094,
2010-11-15, 03:05:04,VALID,916.681,VALID,0,VALID,94.8429,VALID,0,VALID,19.9758,VALID,136,VALID,0.433984,
2010-11-15, 03:06:04,VALID,916.689,VALID,0,VALID,94.8048,VALID,0,VALID,19.9953,VALID,136,VALID,0.417188,
2010-11-15, 03:07:04,VALID,916.678,VALID,0,VALID,94.8048,VALID,0,VALID,19.9953,VALID,136,VALID,0.532812,
2010-11-15, 03:08:04,VALID,916.692,VALID,0,VALID,94.8048,VALID,0,VALID,19.9743,VALID,136,VALID,0.572656,
2010-11-15, 03:09:04,VALID,916.664,VALID,0,VALID,94.7972,VALID,0,VALID,19.9758,VALID,136,VALID,0.536719,
2010-11-15, 03:10:04,VALID,916.632,VALID,0,VALID,94.8505,VALID,0,VALID,19.9563,VALID,136,VALID,0.415234,
2010-11-15, 03:11:04,VALID,916.589,VALID,0,VALID,94.9573,VALID,0,VALID,19.9563,VALID,136,VALID,0.373437,
2010-11-15, 03:12:04,VALID,916.583,VALID,0,VALID,95.0411,VALID,0,VALID,19.8963,VALID,137,VALID,0.678906,
2010-11-15, 03:13:04,VALID,916.568,VALID,0,VALID,95.1555,VALID,0,VALID,19.9188,VALID,137,VALID,0.760547,
2010-11-15, 03:14:04,VALID,916.536,VALID,0,VALID,95.2775,VALID,0,VALID,19.8783,VALID,137,VALID,0.669531,
2010-11-15, 03:15:04,VALID,916.513,VALID,0,VALID,95.3842,VALID,0,VALID,19.8588,VALID,137,VALID,0.725781,
2010-11-15, 03:16:04,VALID,916.5,VALID,0,VALID,95.4528,VALID,0,VALID,19.8393,VALID,137,VALID,0.612891,
2010-11-15, 03:17:04,VALID,916.499,VALID,0,VALID,95.5214,VALID,0,VALID,19.8183,VALID,137,VALID,0.400391,
2010-11-15, 03:18:04,VALID,916.478,VALID,0,VALID,95.5595,VALID,0,VALID,19.8393,VALID,137,VALID,0.525391,
2010-11-15, 03:19:04,VALID,916.489,VALID,0,VALID,95.5976,VALID,0,VALID,19.8198,VALID,137,VALID,0.812109,
2010-11-15, 03:20:04,VALID,916.495,VALID,0,VALID,95.651,VALID,0,VALID,19.7793,VALID,137,VALID,0.778516,
2010-11-15, 03:21:04,VALID,916.481,VALID,0,VALID,95.6662,VALID,0,VALID,19.8213,VALID,137,VALID,0.208203,
2010-11-15, 03:22:04,VALID,916.485,VALID,0,VALID,95.7196,VALID,0,VALID,19.7793,VALID,137,VALID,0.568359,
2010-11-15, 03:23:04,VALID,916.511,VALID,0,VALID,95.7501,VALID,0,VALID,19.8003,VALID,137,VALID,0.415625,
2010-11-15, 03:24:04,VALID,916.515,VALID,0,VALID,95.7882,VALID,0,VALID,19.7598,VALID,137,VALID,0.500391,
2010-11-15, 03:25:04,VALID,916.53,VALID,0,VALID,95.8035,VALID,0,VALID,19.8003,VALID,137,VALID,0.370313,
2010-11-15, 03:26:04,VALID,916.498,VALID,0,VALID,95.8492,VALID,0,VALID,19.7613,VALID,137,VALID,0.525781,
2010-11-15, 03:27:04,VALID,916.552,VALID,0,VALID,95.8263,VALID,0,VALID,19.7208,VALID,137,VALID,0.723828,
2010-11-15, 03:28:04,VALID,916.553,VALID,0,VALID,95.8416,VALID,0,VALID,19.7613,VALID,137,VALID,0.946875,
2010-11-15, 03:29:04,VALID,916.542,VALID,0,VALID,95.8721,VALID,0,VALID,19.7208,VALID,137,VALID,1.0875,
2010-11-15, 03:30:04,VALID,916.563,VALID,0,VALID,95.9026,VALID,0,VALID,19.7403,VALID,137,VALID,1.00352,
2010-11-15, 03:31:04,VALID,916.565,VALID,0,VALID,95.9254,VALID,0,VALID,19.7013,VALID,137,VALID,0.941016,
2010-11-15, 03:32:04,VALID,916.61,VALID,0,VALID,95.9254,VALID,0,VALID,19.7418,VALID,127,VALID,1.33672,
2010-11-15, 03:33:04,VALID,916.619,VALID,0,VALID,95.9178,VALID,0,VALID,19.7418,VALID,129,VALID,1.10039,
2010-11-15, 03:34:04,VALID,916.646,VALID,0,VALID,95.8797,VALID,0,VALID,19.7418,VALID,129,VALID,0.897266,
2010-11-15, 03:35:04,VALID,916.653,VALID,0,VALID,95.8568,VALID,0,VALID,19.7403,VALID,129,VALID,0.549609,
2010-11-15, 03:36:04,VALID,916.669,VALID,0,VALID,95.8187,VALID,0,VALID,19.7598,VALID,129,VALID,0.514063,
2010-11-15, 03:37:04,VALID,916.692,VALID,0,VALID,95.7958,VALID,0,VALID,19.7808,VALID,129,VALID,0.369922,
2010-11-15, 03:38:04,VALID,916.671,VALID,0,VALID,95.7577,VALID,0,VALID,19.7808,VALID,129,VALID,0.359375,
2010-11-15, 03:39:04,VALID,916.648,VALID,0,VALID,95.773,VALID,0,VALID,19.7808,VALID,129,VALID,0.298828,
2010-11-15, 03:40:04,VALID,916.682,VALID,0,VALID,95.712,VALID,0,VALID,19.7808,VALID,129,VALID,0.600781,
2010-11-15, 03:41:04,VALID,916.659,VALID,0,VALID,95.7044,VALID,0,VALID,19.7808,VALID,129,VALID,0.788281,
2010-11-15, 03:42:04,VALID,916.664,VALID,0,VALID,95.6815,VALID,0,VALID,19.7403,VALID,129,VALID,0.675781,
2010-11-15, 03:43:04,VALID,916.676,VALID,0,VALID,95.6815,VALID,0,VALID,19.7613,VALID,129,VALID,0.896484,
2010-11-15, 03:44:04,VALID,916.658,VALID,0,VALID,95.6967,VALID,0,VALID,19.7613,VALID,129,VALID,1.04805,
2010-11-15, 03:45:04,VALID,916.695,VALID,0,VALID,95.6967,VALID,0,VALID,19.7613,VALID,129,VALID,0.957031,
2010-11-15, 03:46:04,VALID,916.677,VALID,0,VALID,95.6815,VALID,0,VALID,19.7808,VALID,129,VALID,1.00898,